Pompano Beach, FL

2:47 PM EST on November 21, 2017 (GMT -0500)
Pompano Beach

Weather History for KPMP - July, 2013

Change the Weather History Date:

Sunday, July 7, 2013

  Actual Average Record
Temperature  
Mean Temperature 83 °F -  
Max Temperature 87 °F 92 °F 98 °F (1980)
Min Temperature 80 °F 73 °F 63 °F (1977)
Cooling Degree Days 18    
Growing Degree Days 33 (Base 50)    
Moisture  
Dew Point 76 °F    
Average Humidity 80    
Maximum Humidity 90    
Minimum Humidity 70    
Precipitation  
Precipitation 0.05 in - - ()
Sea Level Pressure  
Sea Level Pressure 30.08 in    
Wind  
Wind Speed 11 mph (East)    
Max Wind Speed 17 mph    
Max Gust Speed 22 mph    
Visibility 10 miles    
Events Rain    
Averages and records for this station are not official NWS values.
T = Trace of Precipitation, MM = Missing Value Source: NWS Daily Summary

Daily Weather History Graph

Daily Weather History Graph

Search for Another Location

Airport or City:

Trip Planner

Search our weather history database for the weather conditions in past years. The results will help you decide how hot, cold, wet, or windy it might be!

Date:

Astronomy

Jul. 07, 2013 Rise Set
Actual Time 6:34 AM EDT 8:16 PM EDT
Civil Twilight 6:08 AM EDT 8:42 PM EDT
Nautical Twilight 5:36 AM EDT 9:13 PM EDT
Astronomical Twilight 5:04 AM EDT 9:46 PM EDT
Moon 6:03 AM EDT (7/7) 7:46 PM EDT (7/7)
Length of Visible Light 14h 34m
Length of Day
13h 42m
Waning Crescent, 0% of the Moon is Illuminated
Jul 7
Waning Crescent
Jul 8
New
Jul 15
First Quarter
Jul 22
Full
Jul 29
Last Quarter

Hourly Weather History & Observations

Time (EDT) Temp. Heat Index Dew Point Humidity Pressure Visibility Wind Dir Wind Speed Gust Speed Precip Events Conditions
12:53 AM 81.0 °F 86.7 °F 75.0 °F 82% 30.10 in 10.0 mi ESE 10.4 mph - N/A   Clear
1:53 AM 80.1 °F 85.8 °F 77.0 °F 90% 30.09 in 10.0 mi East 6.9 mph - N/A   Partly Cloudy
2:53 AM 80.1 °F 85.8 °F 77.0 °F 90% 30.07 in 10.0 mi East 11.5 mph - 0.04 in   Mostly Cloudy
3:53 AM 80.1 °F 85.4 °F 75.9 °F 87% 30.06 in 10.0 mi East 9.2 mph - N/A   Partly Cloudy
4:53 AM 80.1 °F 85.4 °F 75.9 °F 87% 30.06 in 10.0 mi East 9.2 mph - N/A   Partly Cloudy
5:53 AM 80.1 °F 85.4 °F 75.9 °F 87% 30.06 in 10.0 mi East 11.5 mph - N/A   Partly Cloudy
6:53 AM 80.1 °F 85.4 °F 75.9 °F 87% 30.06 in 10.0 mi East 9.2 mph - N/A   Partly Cloudy
7:53 AM 81.0 °F 86.2 °F 73.9 °F 79% 30.08 in 10.0 mi East 10.4 mph - N/A   Scattered Clouds
8:53 AM 82.0 °F 90.2 °F 77.0 °F 85% 30.09 in 10.0 mi East 13.8 mph - N/A   Scattered Clouds
9:53 AM 82.9 °F 91.8 °F 77.0 °F 82% 30.10 in 10.0 mi East 13.8 mph - N/A   Scattered Clouds
10:53 AM 84.9 °F 95.3 °F 77.0 °F 77% 30.11 in 10.0 mi East 15.0 mph 20.7 mph N/A   Scattered Clouds
11:53 AM 82.9 °F 92.8 °F 78.1 °F 85% 30.11 in 10.0 mi East 11.5 mph - 0.00 in Rain Light Rain
12:53 PM 86.0 °F 95.1 °F 75.0 °F 70% 30.10 in 10.0 mi East 16.1 mph - 0.00 in   Scattered Clouds
1:53 PM 86.0 °F 96.9 °F 77.0 °F 74% 30.09 in 10.0 mi East 17.3 mph 21.9 mph 0.01 in   Scattered Clouds
2:53 PM 86.0 °F 95.1 °F 75.0 °F 70% 30.08 in 10.0 mi East 15.0 mph 20.7 mph N/A   Partly Cloudy
3:53 PM 86.0 °F 96.0 °F 75.9 °F 72% 30.06 in 10.0 mi East 15.0 mph - N/A   Scattered Clouds
4:53 PM 84.9 °F 93.3 °F 75.0 °F 72% 30.05 in 10.0 mi East 17.3 mph 20.7 mph N/A   Partly Cloudy
5:53 PM 84.9 °F 93.3 °F 75.0 °F 72% 30.04 in 10.0 mi East 9.2 mph - N/A   Clear
6:53 PM 82.9 °F 90.2 °F 75.0 °F 77% 30.04 in 10.0 mi East 9.2 mph - 0.00 in   Clear
7:53 PM 82.0 °F 88.6 °F 75.0 °F 79% 30.06 in 10.0 mi East 10.4 mph - N/A   Clear
8:53 PM 82.0 °F 88.6 °F 75.0 °F 79% 30.07 in 10.0 mi East 11.5 mph - N/A   Mostly Cloudy
9:06 PM 82.4 °F 89.5 °F 75.2 °F 79% 30.07 in 10.0 mi ESE 9.2 mph - N/A   Mostly Cloudy
9:19 PM 82.4 °F 89.5 °F 75.2 °F 79% 30.07 in 10.0 mi East 12.7 mph - N/A   Scattered Clouds
9:53 PM 81.0 °F 86.7 °F 75.0 °F 82% 30.08 in 10.0 mi East 9.2 mph - N/A   Scattered Clouds
10:53 PM 82.0 °F 89.4 °F 75.9 °F 82% 30.10 in 10.0 mi East 11.5 mph - N/A   Scattered Clouds
11:53 PM 82.0 °F 87.4 °F 73.0 °F 74% 30.11 in 10.0 mi ESE 10.4 mph - N/A   Partly Cloudy